COSMOS 1691 DEB, 43316

Orbit data source: Space-Track

COSMOS 1691 DEB, 43316 is space debris in LEO originally from a launch on Wed, 09 Oct 1985 UTC launched from the Plesetsk Missile And Space Complex (PKMTR). Debris objects in space refer to the collection of defunct objects orbiting the Earth. Examples of debris include non-operational satellites, rocket bodies, and fragments generated from explosions, collisions, or faulty payload assembly.

Loading next visibility...
Identifier
43316, 1985-094AA
Orbit
LEO
Country
Flag of CISCIS
Related business
Manufacturer
Unknown
Mission
Spacecraft
Bus & Motor
Unknown
Mass
Unknown
Launch date (UTC)
1985-10-09 (40 years ago)
Launch vehicle
Unknown
Launch site
Plesetsk Missile And Space Complex (PKMTR)
Object type
Payload
Rocket body
Debris
Shape & HBR
Unknown
Radar Cross Section
Small (<0.1 m²)

Expand to show TLE details & history
Last TLE update: 2 days ago

TLE from 2 days ago
0 COSMOS 1691 DEB
1 43316U 85094AA  25241.14521562  .00000334  00000-0  16077-2 0  9996
2 43316  82.6039  33.3495 0005812 330.7691  29.3079 12.71056368 38458
Epoch: 2025-08-29T03:29Z
TLE epoch observation values (Epoch: 2025-08-29T03:29:06.629Z)
Latitude
-0.00005°
Longitude
3.4738°
Altitude
1,376.452 km
Speed
7.173 km/s
True Right ascension
02h 13m 23s
True Declination
0° 00' 00"
Sunlit
Object was in daylight at epoch
Visualization orbit readout
Latitude
Unknown
Longitude
Unknown
Altitude
Unknown
Speed
Unknown
Apparent Right ascension
Unknown
Apparent Declination
Unknown
Sunlit
N/A
Visualization observer readout
Local Sidereal Time
22:15:28
Azimuth
Unknown
Elevation
Unknown
Doppler factor
Unknown
Orbital elements
Apogee altitude
1,379.453 km
Perigee altitude
1,370.441 km
Semi-major axis
7,753.084 km
Eccentricity
0.00058
Inclination
82.6039°
RAAN
33.3495°
Arg. of periapsis
330.7691°
True anomaly
29.34052°
Mean anomaly
29.3079°
Eccentric anomaly
29.32421°
Mean motion
3.1793 °/min
Orbital period
113.23 mins
BSTAR
0.0016077
Loading maneuver chart data...
Computing Atmospheric mass density...
Loading historical data...
Loading historical data...
Loading historical data...
Loading historical data...
Loading historical data...
Loading historical data...
Loading historical data...

Documentation

Showing up to 5 results
|